Regional Weather Roundup
Issued by NWS

Home | Current Version | Previous Version | Text Only | Print | Product List | Glossary Off
Versions: 1 2 3 4 5 6 7 8 9 10 11 12 13 14 15 16 17 18 19 20 21 22 23 24 25 26 27 28 29 30 31 32 33 34 35 36 37 38 39 40 41 42 43 44 45 46 47 48 49 50

000
ASUS43 KLMK 270110
RWRKY
KENTUCKY REGIONAL WEATHER ROUNDUP
NATIONAL WEATHER SERVICE LOUISVILLE KY
900 PM EDT TUE AUG 26 2014

NOTE "FAIR" INDICATES FEW OR NO CLOUDS BELOW 12,000 FEET
WITH NO SIGNIFICANT WEATHER AND/OR OBSTRUCTIONS TO VISIBILITY.

KYZ001>023-026-027-061>063-070>075-270200-
WESTERN AND SOUTH CENTRAL KENTUCKY

CITY           SKY/WX    TMP DP  RH WIND       PRES   REMARKS
PADUCAH        PTCLDY    79  72  79 SW3       30.04R
HENDERSON      CLEAR     81  72  74 E3        30.04F
OWENSBORO      CLEAR     85  73  67 E5        30.06R HX  91
HOPKINSVILLE   MOCLDY    78  75  89 CALM      30.07R
BOWLING GREEN  CLEAR     82  71  69 CALM      30.07R
GLASGOW        PTCLDY    78  70  76 CALM      30.08R
$$

KYZ024-025-028>034-038-045-046-053-270200-
NORTH CENTRAL KENTUCKY

CITY           SKY/WX    TMP DP  RH WIND       PRES   REMARKS
LOUISVILLE/SDF MOCLDY    84  67  56 N12       30.08R THUNDER
LOUISVILLE/LOU PTCLDY    82  65  56 NW8       30.08R
FORT KNOX      PTCLDY    82  73  75 NE1       30.08R
$$

KYZ035>037-039>044-047>052-055>060-089>105-270200-
NORTHEAST KENTUCKY

CITY           SKY/WX    TMP DP  RH WIND       PRES   REMARKS
LEXINGTON      PTCLDY    81  67  62 E3        30.11R
COVINGTON      MOCLDY    76  66  71 S6        30.08F
FRANKFORT      PTCLDY    80  69  69 E3        30.09S
$$

KYZ054-064>069-076>088-106>120-270200-
SOUTHEAST KENTUCKY

CITY           SKY/WX    TMP DP  RH WIND       PRES   REMARKS
JACKSON        CLEAR     73  61  65 CALM      30.14R
LONDON         CLEAR     75  62  64 CALM      30.13R
SOMERSET       PTCLDY    73  64  73 CALM      30.12R
MIDDLESBORO    CLEAR     73  66  80 W3        30.13R
MONTICELLO     CLEAR     73  70  91 CALM      30.12R
$$



USA.gov is the U.S. government's official web portal to all federal, state and local government web resources and services.